,,Stat6,,Stat2,,Stat8,,Stat9,,Stat10,,Wind1,,Wind1,
time,status,PA1M_AVG,status,PR1M_SUM,status,RH1M_AVG,status,SR1M_AVG,status,TA1M_AVG,status,W1dAve1m,status,W1sAve1m,
2007-02-25, 00:00:01,VALID,917.616,VALID,0,VALID,100,VALID,-0.0455494,VALID,19.0004,VALID,28,VALID,1.86555,
2007-02-25, 00:01:01,VALID,917.613,VALID,0,VALID,100,VALID,-0.0151831,VALID,18.9879,VALID,351,VALID,0.479297,
2007-02-25, 00:02:00,VALID,917.603,VALID,0,VALID,100,VALID,0,VALID,18.9522,VALID,4,VALID,0.282099,
2007-02-25, 00:03:01,VALID,917.582,VALID,0,VALID,100,VALID,-0.0455494,VALID,18.9193,VALID,94,VALID,0.61582,
2007-02-25, 00:04:00,VALID,917.581,VALID,0,VALID,100,VALID,0,VALID,18.9257,VALID,144,VALID,0.658558,
2007-02-25, 00:05:00,VALID,917.571,VALID,0,VALID,100,VALID,-0.0455494,VALID,18.9357,VALID,51,VALID,1.54052,
2007-02-25, 00:06:01,VALID,917.567,VALID,0,VALID,100,VALID,-0.0303662,VALID,18.9227,VALID,27,VALID,1.77065,
2007-02-25, 00:07:01,VALID,917.581,VALID,0,VALID,100,VALID,-0.0151831,VALID,18.9,VALID,30,VALID,1.45868,
2007-02-25, 00:08:00,VALID,917.59,VALID,0,VALID,100,VALID,-0.0151831,VALID,18.903,VALID,42,VALID,1.66499,
2007-02-25, 00:09:00,VALID,917.608,VALID,0,VALID,100,VALID,-0.0303662,VALID,18.8868,VALID,36,VALID,1.87972,
2007-02-25, 00:10:01,VALID,917.643,VALID,0,VALID,100,VALID,-0.0151831,VALID,18.8674,VALID,28,VALID,1.60849,
2007-02-25, 00:11:00,VALID,917.67,VALID,0,VALID,100,VALID,-0.0455494,VALID,18.806,VALID,358,VALID,1.11435,
2007-02-25, 00:12:01,VALID,917.672,VALID,0,VALID,100,VALID,0,VALID,18.7633,VALID,282,VALID,1.05369,
2007-02-25, 00:13:00,VALID,917.682,VALID,0,VALID,100,VALID,0,VALID,18.7376,VALID,29,VALID,2.05432,
2007-02-25, 00:14:01,VALID,917.677,VALID,0,VALID,100,VALID,-0.0303662,VALID,18.7576,VALID,90,VALID,0.714571,
2007-02-25, 00:15:01,VALID,917.669,VALID,0,VALID,100,VALID,-0.0455494,VALID,18.7673,VALID,112,VALID,0.831032,
2007-02-25, 00:16:01,VALID,917.659,VALID,0,VALID,100,VALID,-0.0303662,VALID,18.783,VALID,36,VALID,1.76935,
2007-02-25, 00:17:01,VALID,917.616,VALID,0,VALID,100,VALID,-0.0607325,VALID,18.8192,VALID,24,VALID,1.5362,
2007-02-25, 00:18:01,VALID,917.59,VALID,0,VALID,100,VALID,-0.0910987,VALID,18.7935,VALID,28,VALID,2.04688,
2007-02-25, 00:19:01,VALID,917.563,VALID,0,VALID,100,VALID,-0.0303662,VALID,18.7671,VALID,25,VALID,1.9377,
2007-02-25, 00:20:01,VALID,917.534,VALID,0,VALID,100,VALID,-0.0455494,VALID,18.783,VALID,24,VALID,0.979288,
2007-02-25, 00:21:01,VALID,917.502,VALID,0,VALID,100,VALID,-0.0455494,VALID,18.7895,VALID,47,VALID,0.475818,
2007-02-25, 00:22:01,VALID,917.459,VALID,0,VALID,100,VALID,-0.0759156,VALID,18.7997,VALID,54,VALID,0.764172,
2007-02-25, 00:23:01,VALID,917.427,VALID,0,VALID,100,VALID,-0.0303662,VALID,18.7868,VALID,39,VALID,0.828488,
2007-02-25, 00:24:01,VALID,917.406,VALID,0,VALID,100,VALID,-0.0303662,VALID,18.7701,VALID,307,VALID,0.734184,
2007-02-25, 00:25:00,VALID,917.377,VALID,0,VALID,100,VALID,-0.0455494,VALID,18.7344,VALID,285,VALID,0.411806,
2007-02-25, 00:26:00,VALID,917.364,VALID,0,VALID,100,VALID,0,VALID,18.7341,VALID,199,VALID,0.367569,
2007-02-25, 00:27:00,VALID,917.345,VALID,0,VALID,100,VALID,-0.0151831,VALID,18.7307,VALID,175,VALID,0.0537791,
2007-02-25, 00:28:00,VALID,917.321,VALID,0,VALID,100,VALID,-0.0151831,VALID,18.7341,VALID,191,VALID,0.47532,
2007-02-25, 00:29:00,VALID,917.3,VALID,0,VALID,100,VALID,-0.0151831,VALID,18.698,VALID,217,VALID,0.35423,
2007-02-25, 00:30:00,VALID,917.275,VALID,0,VALID,100,VALID,-0.0303662,VALID,18.7152,VALID,217,VALID,0.165334,
2007-02-25, 00:31:00,VALID,917.253,VALID,0,VALID,100,VALID,-0.0455494,VALID,18.7409,VALID,217,VALID,0.346112,
2007-02-25, 00:32:00,VALID,917.258,VALID,0,VALID,100,VALID,-0.0303662,VALID,18.7444,VALID,227,VALID,0.491097,
2007-02-25, 00:33:00,VALID,917.245,VALID,0,VALID,100,VALID,-0.0910987,VALID,18.7117,VALID,250,VALID,0.877038,
2007-02-25, 00:34:00,VALID,917.247,VALID,0,VALID,100,VALID,-0.0910987,VALID,18.6663,VALID,259,VALID,0.744978,
2007-02-25, 00:35:00,VALID,917.233,VALID,0,VALID,100,VALID,-0.0910987,VALID,18.5857,VALID,255,VALID,1.29634,
2007-02-25, 00:36:00,VALID,917.209,VALID,0,VALID,100,VALID,-0.106282,VALID,18.5009,VALID,264,VALID,1.34889,
2007-02-25, 00:37:00,VALID,917.211,VALID,0,VALID,100,VALID,-0.0910987,VALID,18.423,VALID,257,VALID,1.45439,
2007-02-25, 00:38:00,VALID,917.212,VALID,0,VALID,100,VALID,-0.0759156,VALID,18.4038,VALID,256,VALID,0.940952,
2007-02-25, 00:39:00,VALID,917.228,VALID,0,VALID,100,VALID,-0.0759156,VALID,18.4328,VALID,260,VALID,0.438281,
2007-02-25, 00:40:00,VALID,917.235,VALID,0,VALID,100,VALID,-0.0910987,VALID,18.3971,VALID,265,VALID,0.783381,
2007-02-25, 00:41:00,VALID,917.236,VALID,0,VALID,100,VALID,-0.0759156,VALID,18.3197,VALID,272,VALID,0.846657,
2007-02-25, 00:42:00,VALID,917.225,VALID,0,VALID,100,VALID,-0.0910987,VALID,18.3739,VALID,9,VALID,0.796053,
2007-02-25, 00:43:00,VALID,917.211,VALID,0,VALID,100,VALID,-0.0910987,VALID,18.4295,VALID,35,VALID,1.09909,
2007-02-25, 00:44:00,VALID,917.194,VALID,0,VALID,100,VALID,-0.106282,VALID,18.4425,VALID,45,VALID,0.198331,
2007-02-25, 00:45:00,VALID,917.171,VALID,0,VALID,100,VALID,-0.0910987,VALID,18.4587,VALID,44,VALID,0.872638,
2007-02-25, 00:46:00,VALID,917.152,VALID,0,VALID,100,VALID,-0.0910987,VALID,18.4851,VALID,41,VALID,1.09606,
2007-02-25, 00:47:00,VALID,917.137,VALID,0,VALID,100,VALID,-0.0759156,VALID,18.4585,VALID,26,VALID,0.996652,
2007-02-25, 00:48:00,VALID,917.137,VALID,0,VALID,100,VALID,-0.0607325,VALID,18.3779,VALID,18,VALID,1.21406,
2007-02-25, 00:49:00,VALID,917.143,VALID,0,VALID,100,VALID,-0.0910987,VALID,18.3193,VALID,29,VALID,1.17151,
2007-02-25, 00:50:00,VALID,917.126,VALID,0,VALID,100,VALID,-0.0910987,VALID,18.2998,VALID,28,VALID,1.67134,
2007-02-25, 00:51:00,VALID,917.116,VALID,0,VALID,100,VALID,-0.0910987,VALID,18.2734,VALID,27,VALID,1.87361,
2007-02-25, 00:52:00,VALID,917.096,VALID,0,VALID,100,VALID,-0.0607325,VALID,18.2609,VALID,34,VALID,1.35528,
2007-02-25, 00:53:00,VALID,917.063,VALID,0,VALID,100,VALID,-0.0759156,VALID,18.2641,VALID,11,VALID,1.13318,
2007-02-25, 00:54:00,VALID,917.032,VALID,0,VALID,100,VALID,-0.0759156,VALID,18.2382,VALID,19,VALID,1.07187,
2007-02-25, 00:55:00,VALID,917.016,VALID,0,VALID,100,VALID,-0.0759156,VALID,18.2481,VALID,38,VALID,0.843378,
2007-02-25, 00:56:00,VALID,916.985,VALID,0,VALID,100,VALID,-0.0455494,VALID,18.2704,VALID,37,VALID,0.605283,
2007-02-25, 00:57:00,VALID,916.966,VALID,0,VALID,100,VALID,-0.0910987,VALID,18.2935,VALID,37,VALID,0.547286,
2007-02-25, 00:58:00,VALID,916.96,VALID,0,VALID,100,VALID,-0.0759156,VALID,18.2901,VALID,37,VALID,0.396839,
2007-02-25, 00:59:00,VALID,916.945,VALID,0,VALID,100,VALID,-0.0910987,VALID,18.3063,VALID,37,VALID,0.336868,
2007-02-25, 01:00:00,VALID,916.944,VALID,0,VALID,100,VALID,-0.0910987,VALID,18.3195,VALID,37,VALID,0.166211,
2007-02-25, 01:01:00,VALID,916.949,VALID,0,VALID,100,VALID,-0.0607325,VALID,18.3517,VALID,36,VALID,0.360863,
2007-02-25, 01:02:00,VALID,916.948,VALID,0,VALID,100,VALID,-0.0910987,VALID,18.3517,VALID,37,VALID,0.497582,
2007-02-25, 01:03:00,VALID,916.959,VALID,0,VALID,100,VALID,-0.0607325,VALID,18.3482,VALID,41,VALID,0.0824033,
2007-02-25, 01:04:00,VALID,916.965,VALID,0,VALID,100,VALID,-0.0759156,VALID,18.3482,VALID,41,VALID,0,
2007-02-25, 01:05:00,VALID,916.944,VALID,0,VALID,100,VALID,-0.0759156,VALID,18.3257,VALID,41,VALID,0,
2007-02-25, 01:06:00,VALID,916.954,VALID,0,VALID,100,VALID,-0.0910987,VALID,18.2931,VALID,41,VALID,0.0265997,
2007-02-25, 01:07:00,VALID,916.944,VALID,0,VALID,100,VALID,-0.0607325,VALID,18.2991,VALID,41,VALID,0.126524,
2007-02-25, 01:08:00,VALID,916.949,VALID,0,VALID,100,VALID,-0.0607325,VALID,18.2986,VALID,41,VALID,0.0329241,
2007-02-25, 01:09:00,VALID,916.934,VALID,0,VALID,100,VALID,-0.0607325,VALID,18.2996,VALID,41,VALID,0,
2007-02-25, 01:10:00,VALID,916.934,VALID,0.2,VALID,100,VALID,-0.0151831,VALID,18.2567,VALID,41,VALID,0,
2007-02-25, 01:11:00,VALID,916.904,VALID,0,VALID,100,VALID,-0.0759156,VALID,18.2414,VALID,41,VALID,0,
2007-02-25, 01:12:00,VALID,916.9,VALID,0,VALID,100,VALID,-0.0455494,VALID,18.2148,VALID,41,VALID,0.227257,
2007-02-25, 01:13:00,VALID,916.883,VALID,0.2,VALID,100,VALID,-0.0303662,VALID,18.212,VALID,41,VALID,0.407965,
2007-02-25, 01:14:00,VALID,916.862,VALID,0,VALID,100,VALID,-0.0607325,VALID,18.1851,VALID,42,VALID,0.53267,
2007-02-25, 01:15:00,VALID,916.836,VALID,0.2,VALID,100,VALID,-0.0607325,VALID,18.1631,VALID,75,VALID,0.638765,
2007-02-25, 01:16:00,VALID,916.82,VALID,0,VALID,100,VALID,-0.0759156,VALID,18.1374,VALID,99,VALID,0.81529,
2007-02-25, 01:17:00,VALID,916.806,VALID,0,VALID,100,VALID,-0.0607325,VALID,18.0946,VALID,118,VALID,0.840732,
2007-02-25, 01:18:00,VALID,916.794,VALID,0.2,VALID,100,VALID,-0.0151831,VALID,18.0918,VALID,130,VALID,0.871875,
2007-02-25, 01:19:00,VALID,916.778,VALID,0,VALID,100,VALID,-0.0607325,VALID,18.1212,VALID,148,VALID,1.10084,
2007-02-25, 01:20:00,VALID,916.781,VALID,0,VALID,100,VALID,-0.0607325,VALID,18.1145,VALID,149,VALID,0.888139,
2007-02-25, 01:21:00,VALID,916.765,VALID,0,VALID,100,VALID,-0.0455494,VALID,18.1113,VALID,159,VALID,1.09757,
2007-02-25, 01:22:00,VALID,916.752,VALID,0,VALID,100,VALID,-0.0607325,VALID,18.1145,VALID,157,VALID,1.26583,
2007-02-25, 01:23:00,VALID,916.734,VALID,0.2,VALID,100,VALID,-0.0303662,VALID,18.1015,VALID,154,VALID,1.30859,
2007-02-25, 01:24:00,VALID,916.738,VALID,0,VALID,100,VALID,-0.0759156,VALID,18.0888,VALID,153,VALID,1.15358,
2007-02-25, 01:25:00,VALID,916.74,VALID,0,VALID,100,VALID,-0.0607325,VALID,18.089,VALID,143,VALID,0.816311,
2007-02-25, 01:26:00,VALID,916.728,VALID,0,VALID,100,VALID,-0.0607325,VALID,18.0786,VALID,160,VALID,1.09702,
2007-02-25, 01:27:00,VALID,916.728,VALID,0,VALID,100,VALID,-0.0607325,VALID,18.0659,VALID,167,VALID,0.88244,
2007-02-25, 01:28:00,VALID,916.731,VALID,0,VALID,100,VALID,-0.0455494,VALID,18.0559,VALID,186,VALID,0.955433,
2007-02-25, 01:29:00,VALID,916.734,VALID,0,VALID,100,VALID,-0.0910987,VALID,18.0527,VALID,189,VALID,0.800781,
2007-02-25, 01:30:00,VALID,916.741,VALID,0,VALID,100,VALID,-0.0607325,VALID,18.0596,VALID,201,VALID,0.682355,
2007-02-25, 01:31:00,VALID,916.739,VALID,0,VALID,100,VALID,-0.0151831,VALID,18.0661,VALID,189,VALID,1.00191,
2007-02-25, 01:32:00,VALID,916.726,VALID,0.2,VALID,100,VALID,-0.0303662,VALID,18.0691,VALID,174,VALID,1.2818,
2007-02-25, 01:33:00,VALID,916.711,VALID,0,VALID,100,VALID,-0.0455494,VALID,18.0788,VALID,181,VALID,0.79742,
2007-02-25, 01:34:00,VALID,916.702,VALID,0,VALID,100,VALID,-0.0607325,VALID,18.0788,VALID,167,VALID,1.52362,
2007-02-25, 01:35:00,VALID,916.687,VALID,0,VALID,100,VALID,-0.0303662,VALID,18.0788,VALID,165,VALID,1.12954,
2007-02-25, 01:36:00,VALID,916.683,VALID,0,VALID,100,VALID,0,VALID,18.0756,VALID,165,VALID,0.66061,
2007-02-25, 01:37:00,VALID,916.694,VALID,0,VALID,100,VALID,-0.0303662,VALID,18.1018,VALID,172,VALID,0.959413,
2007-02-25, 01:38:00,VALID,916.724,VALID,0.2,VALID,100,VALID,-0.0455494,VALID,18.0948,VALID,162,VALID,0.688477,
2007-02-25, 01:39:00,VALID,916.749,VALID,0,VALID,100,VALID,-0.0455494,VALID,18.0846,VALID,171,VALID,0.822545,
2007-02-25, 01:40:00,VALID,916.745,VALID,0,VALID,100,VALID,-0.0455494,VALID,18.0758,VALID,175,VALID,1.10229,
2007-02-25, 01:41:00,VALID,916.74,VALID,0,VALID,100,VALID,-0.0303662,VALID,18.0691,VALID,180,VALID,0.898958,
2007-02-25, 01:42:00,VALID,916.717,VALID,0,VALID,100,VALID,-0.0455494,VALID,18.0663,VALID,169,VALID,1.36592,
2007-02-25, 01:43:00,VALID,916.704,VALID,0,VALID,100,VALID,-0.0759156,VALID,18.0566,VALID,164,VALID,1.17097,
2007-02-25, 01:44:00,VALID,916.694,VALID,0,VALID,100,VALID,-0.0607325,VALID,18.0566,VALID,164,VALID,1.60174,
2007-02-25, 01:45:00,VALID,916.689,VALID,0.2,VALID,100,VALID,-0.0455494,VALID,18.0404,VALID,162,VALID,1.50205,
2007-02-25, 01:46:00,VALID,916.659,VALID,0,VALID,100,VALID,-0.0607325,VALID,18.0367,VALID,153,VALID,1.66788,
2007-02-25, 01:47:00,VALID,916.638,VALID,0,VALID,100,VALID,-0.0151831,VALID,18.0267,VALID,161,VALID,1.71285,
2007-02-25, 01:48:00,VALID,916.623,VALID,0,VALID,100,VALID,0.0455494,VALID,18.0355,VALID,153,VALID,1.4274,
2007-02-25, 01:49:00,VALID,916.604,VALID,0,VALID,100,VALID,0,VALID,18.0325,VALID,152,VALID,1.5253,
2007-02-25, 01:50:00,VALID,916.593,VALID,0,VALID,100,VALID,0.0151831,VALID,18.0422,VALID,156,VALID,1.73189,
2007-02-25, 01:51:00,VALID,916.588,VALID,0,VALID,100,VALID,0.0303662,VALID,18.0358,VALID,159,VALID,1.69922,
2007-02-25, 01:52:00,VALID,916.595,VALID,0,VALID,100,VALID,0.0151831,VALID,18.0321,VALID,171,VALID,1.19395,
2007-02-25, 01:53:00,VALID,916.591,VALID,0.2,VALID,100,VALID,0.0303662,VALID,18.0453,VALID,194,VALID,0.787064,
2007-02-25, 01:54:00,VALID,916.6,VALID,0,VALID,100,VALID,0.0607325,VALID,18.0612,VALID,182,VALID,1.01934,
2007-02-25, 01:55:00,VALID,916.588,VALID,0,VALID,100,VALID,0.0151831,VALID,18.0543,VALID,186,VALID,0.927641,
2007-02-25, 01:56:00,VALID,916.57,VALID,0,VALID,100,VALID,0.0607325,VALID,18.0575,VALID,182,VALID,0.762429,
2007-02-25, 01:57:00,VALID,916.56,VALID,0,VALID,100,VALID,0.0607325,VALID,18.0744,VALID,174,VALID,1.03792,
2007-02-25, 01:58:00,VALID,916.534,VALID,0.2,VALID,100,VALID,0.0607325,VALID,18.0742,VALID,171,VALID,1.23568,
2007-02-25, 01:59:00,VALID,916.521,VALID,0,VALID,100,VALID,0.0607325,VALID,18.0645,VALID,168,VALID,0.928779,
2007-02-25, 02:00:00,VALID,916.503,VALID,0.2,VALID,100,VALID,0.0607325,VALID,18.0673,VALID,175,VALID,0.621875,
2007-02-25, 02:01:00,VALID,916.491,VALID,0,VALID,100,VALID,0.0759156,VALID,18.0673,VALID,175,VALID,1.27752,
2007-02-25, 02:02:00,VALID,916.462,VALID,0.2,VALID,100,VALID,0.0455494,VALID,18.0675,VALID,173,VALID,1.09925,
2007-02-25, 02:03:00,VALID,916.441,VALID,0,VALID,100,VALID,-0.0303662,VALID,18.0788,VALID,170,VALID,0.550781,
2007-02-25, 02:04:00,VALID,916.425,VALID,0.2,VALID,100,VALID,-0.0303662,VALID,18.0652,VALID,167,VALID,0.752477,
2007-02-25, 02:05:00,VALID,916.406,VALID,0,VALID,100,VALID,-0.0151831,VALID,18.0756,VALID,171,VALID,0.953125,
2007-02-25, 02:06:00,VALID,916.389,VALID,0,VALID,100,VALID,-0.0303662,VALID,18.0686,VALID,170,VALID,0.647166,
2007-02-25, 02:07:00,VALID,916.386,VALID,0,VALID,100,VALID,-0.0303662,VALID,18.0661,VALID,157,VALID,0.733173,
2007-02-25, 02:08:00,VALID,916.376,VALID,0,VALID,100,VALID,-0.0607325,VALID,18.0561,VALID,161,VALID,1.02195,
2007-02-25, 02:09:00,VALID,916.361,VALID,0.2,VALID,100,VALID,-0.0151831,VALID,18.0524,VALID,160,VALID,0.87571,
2007-02-25, 02:10:00,VALID,916.352,VALID,0,VALID,100,VALID,-0.0455494,VALID,18.0628,VALID,160,VALID,0.889881,
2007-02-25, 02:11:00,VALID,916.344,VALID,0,VALID,100,VALID,-0.0151831,VALID,18.0589,VALID,154,VALID,1.23754,
2007-02-25, 02:12:00,VALID,916.366,VALID,0,VALID,100,VALID,0,VALID,18.0594,VALID,149,VALID,1.17839,
2007-02-25, 02:13:00,VALID,916.36,VALID,0,VALID,100,VALID,-0.0151831,VALID,18.052,VALID,143,VALID,1.18441,
2007-02-25, 02:14:00,VALID,916.371,VALID,0.2,VALID,100,VALID,-0.0455494,VALID,18.0723,VALID,146,VALID,1.15801,
2007-02-25, 02:15:00,VALID,916.354,VALID,0,VALID,100,VALID,-0.0303662,VALID,18.0624,VALID,146,VALID,1.40062,
2007-02-25, 02:16:00,VALID,916.36,VALID,0,VALID,100,VALID,0,VALID,18.095,VALID,151,VALID,0.961846,
2007-02-25, 02:17:00,VALID,916.37,VALID,0,VALID,100,VALID,-0.0455494,VALID,18.095,VALID,147,VALID,1.2926,
2007-02-25, 02:18:00,VALID,916.365,VALID,0,VALID,100,VALID,-0.0607325,VALID,18.108,VALID,141,VALID,1.10861,
2007-02-25, 02:19:00,VALID,916.371,VALID,0.2,VALID,100,VALID,-0.0607325,VALID,18.108,VALID,153,VALID,1.68537,
2007-02-25, 02:20:00,VALID,916.369,VALID,0,VALID,100,VALID,-0.0607325,VALID,18.118,VALID,140,VALID,1.85293,
2007-02-25, 02:21:00,VALID,916.359,VALID,0,VALID,100,VALID,-0.0303662,VALID,18.1173,VALID,152,VALID,1.43274,
2007-02-25, 02:22:00,VALID,916.373,VALID,0,VALID,100,VALID,-0.0151831,VALID,18.1145,VALID,147,VALID,1.43965,
2007-02-25, 02:23:00,VALID,916.362,VALID,0,VALID,100,VALID,-0.0455494,VALID,18.114,VALID,145,VALID,1.66152,
2007-02-25, 02:24:00,VALID,916.361,VALID,0.2,VALID,100,VALID,-0.0303662,VALID,18.1108,VALID,147,VALID,1.68423,
2007-02-25, 02:25:00,VALID,916.352,VALID,0,VALID,100,VALID,-0.0151831,VALID,18.1208,VALID,151,VALID,1.52024,
2007-02-25, 02:26:00,VALID,916.354,VALID,0,VALID,100,VALID,-0.0607325,VALID,18.1138,VALID,150,VALID,1.73933,
2007-02-25, 02:27:00,VALID,916.347,VALID,0,VALID,100,VALID,0,VALID,18.1113,VALID,141,VALID,1.90625,
2007-02-25, 02:28:00,VALID,916.351,VALID,0,VALID,100,VALID,-0.0455494,VALID,18.1175,VALID,151,VALID,1.42132,
2007-02-25, 02:29:00,VALID,916.339,VALID,0.2,VALID,100,VALID,-0.0607325,VALID,18.1272,VALID,167,VALID,1.49051,
2007-02-25, 02:30:00,VALID,916.32,VALID,0,VALID,100,VALID,-0.0607325,VALID,18.127,VALID,160,VALID,1.71751,
2007-02-25, 02:31:00,VALID,916.33,VALID,0,VALID,100,VALID,-0.0303662,VALID,18.1407,VALID,159,VALID,1.79407,
2007-02-25, 02:32:00,VALID,916.314,VALID,0,VALID,100,VALID,-0.0303662,VALID,18.1567,VALID,162,VALID,1.48881,
2007-02-25, 02:33:00,VALID,916.304,VALID,0.2,VALID,100,VALID,0.0303662,VALID,18.1523,VALID,157,VALID,1.55522,
2007-02-25, 02:34:00,VALID,916.286,VALID,0,VALID,100,VALID,0.0607325,VALID,18.1585,VALID,156,VALID,1.54026,
2007-02-25, 02:35:00,VALID,916.266,VALID,0,VALID,100,VALID,0.0303662,VALID,18.1553,VALID,148,VALID,1.68657,
2007-02-25, 02:36:00,VALID,916.248,VALID,0,VALID,100,VALID,0.0303662,VALID,18.175,VALID,146,VALID,1.12682,
2007-02-25, 02:37:00,VALID,916.221,VALID,0,VALID,100,VALID,0,VALID,18.2009,VALID,147,VALID,2.37277,
2007-02-25, 02:38:00,VALID,916.217,VALID,0,VALID,100,VALID,0.0151831,VALID,18.2132,VALID,158,VALID,1.86701,
2007-02-25, 02:39:00,VALID,916.206,VALID,0.2,VALID,100,VALID,0.0607325,VALID,18.2491,VALID,145,VALID,1.73531,
2007-02-25, 02:40:00,VALID,916.194,VALID,0,VALID,100,VALID,0.0607325,VALID,18.2685,VALID,142,VALID,1.9127,
2007-02-25, 02:41:00,VALID,916.172,VALID,0,VALID,100,VALID,0.0759156,VALID,18.281,VALID,132,VALID,1.42751,
2007-02-25, 02:42:00,VALID,916.157,VALID,0,VALID,100,VALID,0.0607325,VALID,18.301,VALID,146,VALID,2.09468,
2007-02-25, 02:43:00,VALID,916.143,VALID,0,VALID,100,VALID,0.0303662,VALID,18.3077,VALID,146,VALID,1.75017,
2007-02-25, 02:44:00,VALID,916.13,VALID,0,VALID,100,VALID,0.0607325,VALID,18.3042,VALID,144,VALID,1.83482,
2007-02-25, 02:45:00,VALID,916.114,VALID,0.2,VALID,100,VALID,0.0455494,VALID,18.3142,VALID,144,VALID,1.53924,
2007-02-25, 02:46:00,VALID,916.091,VALID,0,VALID,100,VALID,0.0759156,VALID,18.3169,VALID,149,VALID,1.82922,
2007-02-25, 02:47:00,VALID,916.075,VALID,0,VALID,100,VALID,0.0455494,VALID,18.3239,VALID,152,VALID,1.8375,
2007-02-25, 02:48:00,VALID,916.064,VALID,0,VALID,100,VALID,-0.0607325,VALID,18.3318,VALID,145,VALID,1.25621,
2007-02-25, 02:49:00,VALID,916.046,VALID,0.2,VALID,100,VALID,-0.0607325,VALID,18.345,VALID,141,VALID,1.90941,
2007-02-25, 02:50:00,VALID,916.037,VALID,0,VALID,100,VALID,-0.0910987,VALID,18.348,VALID,142,VALID,1.69066,
2007-02-25, 02:51:00,VALID,916.021,VALID,0,VALID,100,VALID,-0.0303662,VALID,18.3413,VALID,147,VALID,1.95938,
2007-02-25, 02:52:00,VALID,916.018,VALID,0,VALID,100,VALID,-0.0455494,VALID,18.3477,VALID,152,VALID,1.53658,
2007-02-25, 02:53:00,VALID,916.008,VALID,0,VALID,100,VALID,-0.0455494,VALID,18.3549,VALID,145,VALID,1.23349,
2007-02-25, 02:54:00,VALID,915.999,VALID,0.2,VALID,100,VALID,-0.0303662,VALID,18.3345,VALID,150,VALID,0.850472,
2007-02-25, 02:55:00,VALID,915.987,VALID,0,VALID,100,VALID,-0.0607325,VALID,18.3283,VALID,146,VALID,2.11559,
2007-02-25, 02:56:00,VALID,915.98,VALID,0,VALID,100,VALID,-0.0151831,VALID,18.3118,VALID,150,VALID,1.45419,
2007-02-25, 02:57:00,VALID,915.961,VALID,0,VALID,100,VALID,-0.0303662,VALID,18.3218,VALID,151,VALID,1.37598,
2007-02-25, 02:58:00,VALID,915.942,VALID,0,VALID,100,VALID,-0.0607325,VALID,18.3123,VALID,159,VALID,1.64748,
2007-02-25, 02:59:00,VALID,915.922,VALID,0.2,VALID,100,VALID,-0.0151831,VALID,18.3123,VALID,151,VALID,1.96134,
2007-02-25, 03:00:00,VALID,915.916,VALID,0,VALID,100,VALID,0,VALID,18.3153,VALID,156,VALID,1.49829,
2007-02-25, 03:01:00,VALID,915.908,VALID,0,VALID,100,VALID,-0.0151831,VALID,18.2984,VALID,152,VALID,1.85518,
2007-02-25, 03:02:00,VALID,915.888,VALID,0,VALID,100,VALID,-0.0151831,VALID,18.3086,VALID,154,VALID,1.83078,
2007-02-25, 03:03:00,VALID,915.876,VALID,0.2,VALID,100,VALID,-0.0607325,VALID,18.3091,VALID,152,VALID,1.5069,
2007-02-25, 03:04:00,VALID,915.873,VALID,0,VALID,100,VALID,-0.0455494,VALID,18.3023,VALID,145,VALID,1.82129,
2007-02-25, 03:05:00,VALID,915.864,VALID,0,VALID,100,VALID,-0.0303662,VALID,18.2956,VALID,151,VALID,1.91406,
2007-02-25, 03:06:00,VALID,915.846,VALID,0,VALID,100,VALID,-0.0303662,VALID,18.3028,VALID,149,VALID,2.18852,
2007-02-25, 03:07:00,VALID,915.832,VALID,0,VALID,100,VALID,-0.0303662,VALID,18.2989,VALID,159,VALID,1.55227,
2007-02-25, 03:08:00,VALID,915.808,VALID,0,VALID,100,VALID,0,VALID,18.3021,VALID,152,VALID,2.07304,
2007-02-25, 03:09:00,VALID,915.777,VALID,0.2,VALID,100,VALID,-0.0303662,VALID,18.2996,VALID,150,VALID,1.74023,
2007-02-25, 03:10:00,VALID,915.757,VALID,0,VALID,100,VALID,-0.0151831,VALID,18.3023,VALID,147,VALID,1.72075,
2007-02-25, 03:11:00,VALID,915.743,VALID,0,VALID,100,VALID,-0.0455494,VALID,18.3058,VALID,152,VALID,1.68025,
2007-02-25, 03:12:00,VALID,915.724,VALID,0,VALID,100,VALID,-0.0455494,VALID,18.3026,VALID,145,VALID,1.6436,
2007-02-25, 03:13:00,VALID,915.7,VALID,0,VALID,100,VALID,-0.0303662,VALID,18.2926,VALID,145,VALID,1.39629,
2007-02-25, 03:14:00,VALID,915.674,VALID,0,VALID,100,VALID,-0.0303662,VALID,18.2891,VALID,140,VALID,1.47565,
2007-02-25, 03:15:00,VALID,915.636,VALID,0,VALID,100,VALID,-0.0607325,VALID,18.2931,VALID,142,VALID,1.22154,
2007-02-25, 03:16:00,VALID,915.597,VALID,0.2,VALID,100,VALID,-0.0455494,VALID,18.2764,VALID,139,VALID,1.5451,
2007-02-25, 03:17:00,VALID,915.562,VALID,0,VALID,100,VALID,-0.0303662,VALID,18.2933,VALID,125,VALID,1.73845,
2007-02-25, 03:18:00,VALID,915.54,VALID,0,VALID,100,VALID,-0.0607325,VALID,18.2794,VALID,132,VALID,1.47582,
2007-02-25, 03:19:00,VALID,915.517,VALID,0,VALID,100,VALID,-0.0455494,VALID,18.2704,VALID,132,VALID,1.60174,
2007-02-25, 03:20:00,VALID,915.482,VALID,0,VALID,100,VALID,-0.0455494,VALID,18.2442,VALID,139,VALID,1.55716,
2007-02-25, 03:21:00,VALID,915.466,VALID,0.2,VALID,100,VALID,-0.0910987,VALID,18.2377,VALID,136,VALID,1.11791,
2007-02-25, 03:22:00,VALID,915.453,VALID,0,VALID,100,VALID,-0.0759156,VALID,18.2148,VALID,135,VALID,1.43005,
2007-02-25, 03:23:00,VALID,915.427,VALID,0,VALID,100,VALID,-0.0303662,VALID,18.1856,VALID,114,VALID,1.20117,
2007-02-25, 03:24:00,VALID,915.413,VALID,0,VALID,100,VALID,-0.0455494,VALID,18.1627,VALID,122,VALID,1.4415,
2007-02-25, 03:25:00,VALID,915.408,VALID,0,VALID,100,VALID,-0.0455494,VALID,18.1367,VALID,133,VALID,1.26916,
2007-02-25, 03:26:00,VALID,915.39,VALID,0,VALID,100,VALID,-0.0455494,VALID,18.1205,VALID,134,VALID,1.33501,
2007-02-25, 03:27:00,VALID,915.379,VALID,0.2,VALID,100,VALID,-0.0607325,VALID,18.1143,VALID,126,VALID,0.992578,
2007-02-25, 03:28:00,VALID,915.355,VALID,0,VALID,100,VALID,-0.0607325,VALID,18.115,VALID,138,VALID,1.17617,
2007-02-25, 03:29:00,VALID,915.337,VALID,0,VALID,100,VALID,-0.0910987,VALID,18.108,VALID,137,VALID,1.15825,
2007-02-25, 03:30:00,VALID,915.303,VALID,0,VALID,100,VALID,-0.0607325,VALID,18.095,VALID,142,VALID,1.30543,
2007-02-25, 03:31:00,VALID,915.279,VALID,0,VALID,100,VALID,-0.0303662,VALID,18.0987,VALID,138,VALID,1.53296,
2007-02-25, 03:32:00,VALID,915.265,VALID,0,VALID,100,VALID,-0.0607325,VALID,18.0853,VALID,116,VALID,1.07874,
2007-02-25, 03:33:00,VALID,915.257,VALID,0,VALID,100,VALID,0,VALID,18.0781,VALID,104,VALID,1.21456,
2007-02-25, 03:34:00,VALID,915.268,VALID,0,VALID,100,VALID,-0.0455494,VALID,18.0758,VALID,102,VALID,0.774926,
2007-02-25, 03:35:00,VALID,915.259,VALID,0,VALID,100,VALID,-0.0607325,VALID,18.0855,VALID,102,VALID,1.1218,
2007-02-25, 03:36:00,VALID,915.26,VALID,0,VALID,100,VALID,-0.0455494,VALID,18.0682,VALID,107,VALID,1.09801,
2007-02-25, 03:37:00,VALID,915.265,VALID,0,VALID,100,VALID,-0.0303662,VALID,18.0622,VALID,125,VALID,0.877668,